Terug naar catalogus

CZ-6A DEB

ActiefPO
NORAD 60657·DEBRIS·🇨🇳 China

Gelanceerd Aug 6, 2024 vanaf Taiyuan Satellite Launch Center

Loading…

Volgende Passages (komende 24 uur)

TLE

VersSource: Space-Track

Epoch: Sep 14, 2026, 09:14 UTC

1 60657U 24140BJ  26257.38480778  .00000549  00000-0  13041-3 0  9992
2 60657  88.9165 252.6309 0089479 326.7953  32.7657 14.50087908111041

Volg CZ-6A DEB in realtime met AllMySat

Download on the App Store